Location: Poughquag
(41.6090°N, 73.6820°W)
Time: 08:29:38
(UTC-05:00)

Altair - Pass Details

Date: 04 December 2023
Orbit: 1501 x 1682 km, 47.2° (Epoch: 02 March)

Event Time Altitude Azimuth Distance (km) Brightness Sun altitude
Rises 16:45:13 0° 288° (WNW) 4,648 10.8 -4.2°
Reaches altitude 10° 16:49:56 10° 267° (W) 3,652 10.8 -5.0°
Maximum altitude 16:54:34 15° 236° (SW) 3,256 10.8 -5.8°
Drops below altitude 10° 16:59:13 10° 205° (SSW) 3,650 10.3 -6.6°
Sets 17:04:00 0° 184° (S) 4,645 10.4 -7.4°
